TimeEDT,TemperatureF,Dew PointF,Humidity,Sea Level PressureIn,VisibilityMPH,Wind Direction,Wind SpeedMPH,Gust SpeedMPH,PrecipitationIn,Events,Conditions,WindDirDegrees,DateUTC
12:53 AM,28.0,21.0,75,30.06,10.0,NW,4.6,-,N/A,,Clear,320,2013-03-23 04:53:00
1:53 AM,27.0,19.9,75,30.06,10.0,NNW,4.6,-,N/A,,Clear,330,2013-03-23 05:53:00
3:53 AM,25.0,19.9,81,30.05,10.0,NNW,3.5,-,N/A,,Clear,330,2013-03-23 07:53:00
4:53 AM,25.0,19.0,78,30.05,10.0,North,4.6,-,N/A,,Clear,360,2013-03-23 08:53:00
5:53 AM,24.1,19.0,81,30.06,10.0,NNW,4.6,-,N/A,,Clear,330,2013-03-23 09:53:00
6:53 AM,24.1,19.0,81,30.07,10.0,North,4.6,-,N/A,,Clear,350,2013-03-23 10:53:00
7:53 AM,24.1,19.9,84,30.08,10.0,North,5.8,-,N/A,,Clear,10,2013-03-23 11:53:00
8:53 AM,27.0,21.9,81,30.10,10.0,North,5.8,-,N/A,,Clear,10,2013-03-23 12:53:00
9:53 AM,30.9,24.1,76,30.12,10.0,Calm,Calm,-,N/A,,Scattered Clouds,0,2013-03-23 13:53:00
10:53 AM,33.1,23.0,66,30.12,10.0,East,6.9,-,N/A,,Overcast,90,2013-03-23 14:53:00
11:04 AM,33.8,21.2,60,30.08,10.0,ENE,6.9,-,N/A,,Overcast,60,2013-03-23 15:04:00
11:53 AM,33.1,23.0,66,30.13,10.0,NNE,5.8,-,N/A,,Overcast,30,2013-03-23 15:53:00
12:40 PM,33.8,21.2,60,30.09,10.0,North,6.9,-,N/A,,Overcast,10,2013-03-23 16:40:00
12:53 PM,33.1,21.0,61,30.13,10.0,Variable,3.5,-,N/A,,Overcast,0,2013-03-23 16:53:00
1:30 PM,33.8,21.2,60,30.10,10.0,NW,4.6,-,N/A,,Overcast,310,2013-03-23 17:30:00
1:53 PM,34.0,21.0,59,30.13,10.0,NNW,4.6,-,N/A,,Overcast,340,2013-03-23 17:53:00
2:53 PM,36.0,21.9,57,30.11,10.0,North,5.8,-,N/A,,Overcast,10,2013-03-23 18:53:00
3:53 PM,37.9,21.9,53,30.10,10.0,North,4.6,-,N/A,,Scattered Clouds,350,2013-03-23 19:53:00
4:53 PM,39.0,21.0,49,30.09,10.0,NNE,3.5,-,N/A,,Partly Cloudy,30,2013-03-23 20:53:00
5:53 PM,39.0,19.9,46,30.08,10.0,NNE,5.8,-,N/A,,Clear,20,2013-03-23 21:53:00
6:53 PM,37.0,24.1,59,30.09,10.0,NNE,9.2,-,N/A,,Clear,30,2013-03-23 22:53:00
7:53 PM,32.0,23.0,69,30.09,10.0,NE,9.2,-,N/A,,Clear,40,2013-03-23 23:53:00
8:53 PM,28.9,23.0,78,30.10,10.0,North,5.8,-,N/A,,Clear,10,2013-03-24 00:53:00
9:53 PM,28.9,21.9,75,30.09,10.0,NNE,8.1,-,N/A,,Clear,30,2013-03-24 01:53:00
10:53 PM,28.0,21.9,78,30.09,10.0,NE,6.9,-,N/A,,Clear,40,2013-03-24 02:53:00
11:53 PM,28.0,21.9,78,30.06,10.0,NE,8.1,-,N/A,,Clear,50,2013-03-24 03:53:00